User: anonymous   Login
Location: Boiro
(42.6475°N, 8.8834°W)
Time: 07:43:06
(UTC+02:00)
Language:

ZACube-1 - Orbit

View from above orbital plane
View from above orbital plane
View from above satellite
View from above satellite

Ground track
Ground track

The orbit data is extracted from the following two-line orbital elements,

1 39417U 13066B   22221.35350707  .00001127  00000-0  14314-3 0  9996
2 39417  97.6403 190.4782 0056283 230.2418 129.3831 14.82494426470967
Epoch (UTC): 09 August 2022 08:29:03
Eccentricity: 0.0056283
inclination: 97.6403°
perigee height: 582 km
apogee height: 661 km
right ascension of ascending node: 190.4782°
argument of perigee: 230.2418°
revolutions per day: 14.82494426
mean anomaly at epoch: 129.3831°
orbit number at epoch: 47096

The dashed part of the orbit path shows where the satellite is in the earth's shadow,  

DLR